Location: Castelbiague
(43.0361°N, 0.9246°E)
Time: 12:12:57
(UTC+00:00)

Meteor 1-4 Rocket - Pass Details

Date: 22 October 2021
Orbit: 446 x 496 km, 81.2° (Epoch: 29 November)

Event Time Altitude Azimuth Distance (km) Brightness Sun altitude
Rises 19:26:01 0° 218° (SW) 2,475 6.5 -26.9°
Reaches altitude 10° 19:28:25 10° 234° (SW) 1,597 5.7 -27.3°
Maximum altitude 19:31:12 22° 287° (WNW) 1,046 4.9 -27.8°
Enters shadow 19:33:28 13° 335° (NNW) 1,436 5.3 -28.2°
